Diablo

United States     37˚52′40″N   121˚56′02″W
temp.,
°C
wind,
m/s
gust,
m/s
humid.,
%
clouds,
%
prec.,
mm/h
press.,
hPa
HPBL,
m
29 november, sun
sun2901:00+10˚ese114515 0.0 102222
04:00+9˚ene114743 0.0 102222
07:00+9˚ene125497 0.0 102231
10:00+12˚nne124059 0.0 1023266
13:00+16˚ne123132 0.0 1021394
16:00+16˚nne113223 0.0 1022199
19:00+13˚sse113964 0.0 102323
22:00+12˚sw014182 0.0 102322
30 november, mon
mon3001:00+11˚s114537 0.0 102422
04:00+10˚ese004919 0.0 102522
07:00+9˚ne005420 0.0 102522
10:00+13˚n11429 0.0 1026244
13:00+17˚w11300 0.0 1024333
16:00+17˚wsw12250 0.0 1024155
19:00+14˚sw22320 0.0 102447
22:00+12˚sw11480 0.0 102522
1 december, tue
tue101:00+11˚ne00650 0.0 102422
04:00+10˚ese22500 0.0 102340
07:00+10˚ese22530 0.0 102354
10:00+13˚ene23420 0.0 1023382
13:00+17˚ne23300 0.0 1021622
16:00+17˚ene24290 0.0 1019355
19:00+13˚se11360 0.0 102023
22:00+12˚n01390 0.0 102022
2 december, wed
wed201:00+11˚ene11440 0.0 102023
04:00+9˚ne11500 0.0 102054
07:00+9˚ene26510 0.0 1020228
10:00+12˚ene25400 0.0 1020312
13:00+16˚ne23300 0.0 1018459
16:00+17˚e01290 0.0 101740
19:00+13˚ssw11350 0.0 101723
22:00+12˚sw11400 0.0 101723
3 december, thu
thu301:00+11˚sw11470 0.0 101722
04:00+10˚e115018 0.0 101822
07:00+9˚ne1148100 0.0 101824
10:00+12˚ne233798 0.0 1020297
13:00+15˚ne2330100 0.0 1019464
16:00+16˚nne2332100 0.0 1019212
19:00+13˚e1141100 0.0 102124
22:00+12˚ene1146100 0.0 102222